{"data":{"norad_id":62879,"intl_designator":"2025-024A","name":"STARLINK-11371 [DTC]","alt_names":[],"object_type":"PAYLOAD","status":"ACTIVE","operator":null,"country":"US","launch_date":"2025-02-04","launch_site_code":"AFETR","launch_vehicle":null,"mission":null,"orbit_class":"UNKNOWN","rcs_meters":null,"size_class":null,"mass_kg":null,"dimensions":null,"purposes":["comms"],"wikipedia_slug":null,"has_3d_model":false,"image_url":null,"decayed_at":null,"tle_current":{"epoch":"2026-09-21T05:02:27.560544Z","epoch_age_seconds":106837,"freshness":"FRESH","line1":"1 62879U 25024A   26264.21004121  .00197152  00000+0  15005-2 0  9993","line2":"2 62879  43.0011  83.2171 0002481 273.1556  86.9027 15.70891402 94214","mean_motion":15.70891402,"eccentricity":0.0002481,"inclination_deg":43.0011,"raan_deg":83.2171,"arg_perigee_deg":273.1556,"mean_anomaly_deg":86.9027,"bstar":0.0015005,"rev_number":9421,"period_min":91.667698872541,"perigee_km":354.67732327317,"apogee_km":358.01897480412,"semimajor_km":6734.4851490386,"source":"CELESTRAK","updated_at":"2026-09-22T09:00:49.701586Z"}}}